Location: ?ern� Novina
(50.6762°N, 14.8696°E)
Time: 13:57:44
(UTC+00:00)

CZ-2D R/B - Pass Details

Date: 03 March 2021
Orbit: 522 x 536 km, 97.4° (Epoch: 11 April)

Event Time Altitude Azimuth Distance (km) Brightness Sun altitude
Rises 17:15:02 0° 173° (S) 2,641 6.8 -5.5°
Reaches altitude 10° 17:17:08 10° 176° (S) 1,759 5.9 -5.8°
Maximum altitude 17:20:54 64° 258° (WSW) 585 3.8 -6.4°
Drops below altitude 10° 17:24:43 10° 341° (NNW) 1,781 6.2 -7.0°
Sets 17:26:52 0° 345° (NNW) 2,678 7.0 -7.3°
